www.pogodaiklimat.ru

Погода и климат >> Архив погоды >> Индия >> Ассам >> Дхубри


ПОГОДА в Дхубри

  • Прогноз погоды в Дхубри
  • Монитор погоды в Дхубри

АРХИВ ПОГОДЫ в Дхубри

Время (UTC), дата Ветер
(напр.,м/с)
 
Видим.   Явления Облачность Т
(С)
Тd
(С)
f
(%)
Тe
(С)
Тes
(С)
Комфортность P
(гПа)
Po
(гПа)
Тmin
(С)
Tmax
(С)
R
(мм)
R24
(мм)
S
(см)
03 14.07 З 1 2000 м дождь {морось} 10/6 540 м
[Frnb As op]
+25.0 +25.0 100 +36 +37 очень
душно
1001.0 996.9 +24.4 49
06 14.07 З 1 2000 м слаб. морось {дождь} 10/6 540 м
[Frnb As op]
+26.0 +25.7 98 +38 +40 очень
душно
1000.4 996.3 9
09 14.07 штиль 0 4000 м слаб. морось {дождь} 10/6 540 м
[Frnb As op]
+27.4 +25.7 90 +40 +42 очень
душно
999.2 995.1 9
12 14.07 ЮЗ 1 2000 м слаб. морось {дождь} 10/6 540 м
[Frnb As op]
+26.8 +25.4 92 +39 +39 очень
душно
998.0 993.9 +27.6 9
03 15.07 штиль 0 2000 м морось {дождь} 10/6 540 м
[Frnb As op]
+24.8 +24.5 98 +35 +36 очень
душно
1000.1 996.0 +24.0 71
06 15.07 штиль 0 2000 м в посл. час дождь {морось} 10/6 540 м
[Frnb As op]
+25.2 +24.9 98 +36 +38 очень
душно
1001.0 996.9 4
09 15.07 штиль 0 2000 м 10/5 540 м
[Frnb As op]
+26.4 +25.5 95 +39 +40 очень
душно
1000.3 996.2 4
12 15.07 штиль 0 2000 м 10/5 750 м
[Cu Sc As op]
+26.8 +25.4 92 +39 +39 очень
душно
999.2 995.1 +26.8 4
03 16.07 В 1 4000 м 9/5 750 м
[Cu Sc As trans]
+26.2 +25.3 95 +38 +42 очень
душно
1004.0 999.9 +24.5 4
06 16.07 штиль 0 4000 м 8/3 750 м
[Cu Sc Ac trans]
+29.2 +26.1 83 +44 +56 опасность
перегрева
1003.5 999.4
09 16.07 штиль 0 4000 м 5/4 840 м
[Cu Sc Ac trans]
+30.2 +26.0 78 +45 +54 опасность
перегрева
1001.5 997.4
12 16.07 штиль 0 4000 м 5/4 800 м
[Cu Sc Ac trans]
+29.4 +26.0 82 +44 +45 опасность
перегрева
999.8 995.7 +30.4
03 17.07 штиль 0 4000 м 6/3 840 м
[Cu Sc Ac trans]
+28.2 +25.4 85 +41 +50 опасность
перегрева
1003.7 999.6 +25.8
06 17.07 В 1 4000 м 4/3 840 м
[Cu Sc Ac trans]
+28.6 +26.4 88 +44 +60 опасность
перегрева
1002.9 998.8
09 17.07 штиль 0 4000 м 3/1 840 м
[Cu hum Ac trans]
+32.0 +27.6 78 +52 +65 опасность
перегрева
1000.8 996.8
12 17.07 штиль 0 4000 м 3/1 840 м
[Cu hum Ac trans]
+31.2 +26.2 75 +47 +48 опасность
перегрева
999.5 995.5 +32.5
03 18.07 В 1 4000 м 3/0
[Ci fib]
+29.0 +27.1 90 +46 +60 опасность
перегрева
1002.9 998.8 +26.2
06 18.07 В 1 4000 м 4/0
[Ac trans Ci fib]
+30.0 +27.2 85 +48 +70 опасность
перегрева
1002.9 998.8
09 18.07 штиль 0 4000 м 6/3 870 м
[Cu Sc As trans]
+30.0 +26.9 84 +47 +56 опасность
перегрева
1000.8 996.7
12 18.07 штиль 0 4000 м 9/4 870 м
[Cu Sc As trans]
+29.0 +26.2 85 +44 +44 опасность
перегрева
999.4 995.3 +31.5
03 19.07 штиль 0 4000 м в посл. час гроза {дождь} 9/5 840 м
[Cu Sc As trans]
+28.0 +25.7 87 +41 +46 опасность
перегрева
1004.7 1000.6 +24.6 9
06 19.07 штиль 0 4000 м 4/3 870 м
[Cu Sc Ac trans]
+31.2 +27.6 81 +50 +69 опасность
перегрева
1004.0 999.9
09 19.07 штиль 0 4000 м ясно +32.4 +26.9 73 +50 +67 опасность
перегрева
1001.6 997.6
12 19.07 штиль 0 4000 м 4/3 840 м
[Cu Sc Ac trans]
+30.8 +26.6 78 +47 +48 опасность
перегрева
1001.3 997.3 +33.3
03 20.07 ЮЗ 2 4000 м 5/3 840 м
[Cu Sc Ac trans]
+30.0 +26.9 84 +47 +54 опасность
перегрева
1005.8 1001.7 +27.5
06 20.07 ЮЗ 2 4000 м 5/3 840 м
[Cu Sc Ac trans]
+31.6 +26.9 76 +49 +63 опасность
перегрева
1005.0 1001.0
09 20.07 ЮЗ 1 4000 м 3/1 900 м
[Cu hum Ac trans]
+32.6 +25.3 66 +47 +59 опасность
перегрева
1002.9 998.9
12 20.07 ЮЗ 1 4000 м 4/1 900 м
[Cu hum Ac trans]
+31.0 +25.7 73 +46 +46 опасность
перегрева
1001.8 997.8 +33.4

 

Местоположение метеостанции Дхубри (Ассам, Индия): широта 26.02 долгота 89.98 высота над уровнем моря 36 м.

В архиве по умолчанию представлена погода в Дхубри за последнюю неделю. Архивные данные за месяц целиком и за предыдущие месяцы, начиная с января 2011 года, Вы можете получить, выбрав интересующий диапазон дат из раскрывающегося списка и нажав кнопку "Ввод!".


*Определитесь, кто Вы:
робот инопланетянин человек

Внимание! Время в таблицах - всемирное. Для получения местного времени необходимо прибавить поправку, которая равна 5.5 ч.

Смотрите также архив погоды в соседних городах и на ближайших метеорологических станциях:

Погода в Раджархэте (Бангладеш) (49 км)
Погода в Куч-Бихар (Западная Бенгалия, Индия) (61 км)
Погода в Гоалпара (Ассам, Индия) (67 км)
Погода в Рангпуре (Бангладеш) (82 км)
Погода в Саидпуре (Бангладеш) (110 км)
Погода в Динаджпуре (Бангладеш) (136 км)
Погода в Джалпайгури (Западная Бенгалия, Индия) (138 км)
Погода в Тетулии (Бангладеш) (141 км)
Погода в Димле (Бангладеш) (143 км)
Погода в Богре (Бангладеш) (144 км)

Пояснения к столбцам:

Ветер - указаны скорость ветра в м/с - средняя за 10 мин, порывы в срок и между сроками (в фигурных скобках) и направление, откуда дует ветер: С - северный, СВ - северо-восточный, В - восточный, ЮВ - юго-восточный, Ю - южный, ЮЗ - юго-западный, З - западный, СЗ - северо-западный.
Видимость - горизонтальная дальность видимости в метрах или километрах. При видимости от 1 до 10 км при отсутствии осадков обычно наблюдается дымка, при ухудшении видимости до 1 км и менее - туман. В сухую погоду видимость может ухудшаться дымом, пылью или мглою.
Явления - указаны атмосферные явления, наблюдавшиеся в срок или в последний час перед сроком; фигурными скобками обозначены явления, наблюдавшиеся между сроками (за 1-3 часа до срока); квадратными скобками обозначены град или гололедные отложения с указанием их диаметра в мм.
Облачность - указаны через наклонную черту общая и нижняя облачность в баллах и высота нижней границы облаков в метрах; квадратными скобками обозначены формы облаков: Ci - перистые, Cs - перисто-слоистые, Cc - перисто-кучевые, Ac - высококучевые, As - высокослоистые, Sc - слоисто-кучевые, Ns - слоисто-дождевые, Cu - кучевые, Cb - кучево-дождевые. Подробнее классификацию облаков см. в Атласе облаков (PDF).
T - Температура воздуха - температура, измеренная на высоте 2 м над землей.
Td - Температура точки росы - температура, при понижении до которой содержащийся в воздухе водяной пар достигнет насыщения.
f - Относительная влажность воздуха - влажноcть воздуха, измеренная на высоте 2 м над землей.
Te - Эффективная температура - температура, которую ощущает одетый по сезону человек в тени. Характеристика душности погоды. При расчете учитывается влияние влажности воздуха и скорости ветра на теплоощущения человека.
Tes - Эффективная температура на солнце - температура, которую ощущает человек, с поправкой на солнечный нагрев. Характеристика знойности погоды. Зависит от высоты солнца над горизонтом, облачности и скорости ветра. Ночью, в пасмурную погоду, а также при ветре 12 м/с и более поправка равна нулю.
P - Атмосферное давление - приведенное к уровню моря атмосферное давление.
Po - Атмосферное давление - измеренное на уровне метеостанции атмосферное давление.
Tmin - Минимальная температура - минимум температуры воздуха на высоте 2 м над землей.
Tmax - Максимальная температура - максимум температуры воздуха на высоте 2 м над землей.
R - Количество осадков - Количество выпавших осадков за период времени, мм. При наведении курсора мыши на число - период времени, за который выпало указанное количество осадков.
R24 - Количество осадков - Количество выпавших осадков за 24 часа, мм.
S - Снежный покров - Высота снежного покрова, см. При наведении курсора мыши на число - состояние снежного покрова и степень покрытия местности в баллах.